Overview Statistics Trail Chart Weather Telemetry Raw packets
 

This is the latest recevied weather packets stored in our database for station/object 4S6DRJ-13. If no packets are shown the sender has not sent any weather packets the latest 10 day(s).

<< 479 480 481 482 483 484 485 >>
Time Temp. Humidity Pressure Rain* Wind** Luminosity Snow
1787721953 30° C 75% 1011.5 hPa 0 mm 0.89 m/s, 242° 699 W/m² -
1787721892 30° C 74% 1011.6 hPa 0 mm 3.13 m/s, 236° 751 W/m² -
1787721832 30° C 75% 1011.5 hPa 0 mm 1.79 m/s, 235° 767 W/m² -
1787721771 30° C 75% 1011.6 hPa 0 mm 1.34 m/s, 218° 766 W/m² -
1787721709 30° C 74% 1011.5 hPa 0 mm 1.34 m/s, 227° 752 W/m² -
1787721649 30° C 75% 1011.5 hPa 0 mm 1.34 m/s, 222° 725 W/m² -
1787721588 30° C 74% 1011.8 hPa 0 mm 2.68 m/s, 230° 791 W/m² -
1787721527 30° C 74% 1011.6 hPa 0 mm 0.89 m/s, 252° 780 W/m² -
1787721467 30° C 75% 1011.5 hPa 0 mm 1.34 m/s, 274° 774 W/m² -
1787721405 30° C 74% 1011.6 hPa 0 mm 2.24 m/s, 321° 791 W/m² -
1787721344 30° C 76% 1011.6 hPa 0 mm 1.34 m/s, 8° 764 W/m² -
1787721283 30° C 77% 1011.6 hPa 0 mm 0.89 m/s, 289° 771 W/m² -
1787721222 30° C 76% 1011.6 hPa 0 mm 1.34 m/s, 255° 750 W/m² -
1787721165 30° C 77% 1011.4 hPa 0 mm 1.34 m/s, 203° 759 W/m² -
1787721100 30° C 76% 1011.4 hPa 0 mm 2.68 m/s, 248° 743 W/m² -
1787721039 30° C 77% 1011.4 hPa 0 mm 1.79 m/s, 224° 766 W/m² -
1787720978 30° C 77% 1011.7 hPa 0 mm 0.45 m/s, 243° 783 W/m² -
1787720917 29.44° C 77% 1011.5 hPa 0 mm 2.68 m/s, 255° 636 W/m² -
1787720856 29.44° C 77% 1011.6 hPa 0 mm 0.89 m/s, 203° 854 W/m² -
1787720795 29.44° C 77% 1011.7 hPa 0 mm 2.68 m/s, 257° 846 W/m² -
1787720734 29.44° C 78% 1011.6 hPa 0 mm 1.79 m/s, 310° 822 W/m² -
1787720673 29.44° C 78% 1011.7 hPa 0 mm 2.68 m/s, 243° 750 W/m² -
1787720612 29.44° C 77% 1011.8 hPa 0 mm 1.79 m/s, 232° 772 W/m² -
1787720551 29.44° C 78% 1011.6 hPa 0 mm 1.34 m/s, 200° 752 W/m² -
1787720490 29.44° C 77% 1011.8 hPa 0 mm 1.34 m/s, 301° 560 W/m² -

* Rain latest hour (hover to see other rain measurements)
** Current wind speed in m/s (hover to see current wind gust speed)